Regional Weather Roundup
Issued by NWS

Home | Current Version | Previous Version | Text Only | Print | Product List | Glossary On
Versions: 1 2 3 4 5 6 7 8 9 10 11 12 13 14 15 16 17 18 19 20 21 22 23 24 25 26 27 28 29 30 31 32 33 34 35 36 37 38 39 40 41 42 43 44 45 46 47 48 49 50
000
ASUS45 KPSR 230910
RWRAZ

ARIZONA REGIONAL HOURLY WEATHER ROUNDUP
NATIONAL WEATHER SERVICE PHOENIX AZ
200 AM MST WED APR 23 2014

NOTE: FAIR INDICATES FEW OR NO CLOUDS BELOW 12,000 FEET WITH NO
SIGNIFICANT WEATHER AND/OR OBSTRUCTIONS TO VISIBILITY.

AZZ001>003-036-231000-
NORTHWEST ARIZONA

CITY           SKY/WX    TMP DP  RH WIND       PRES   REMARKS
BULLHEAD CITY  PTCLDY    64  16  15 CALM      29.75S
KINGMAN        PTCLDY    46   2  16 SW6       29.81F
$$

AZZ004>008-015-016-018-231000-
NORTH CENTRAL ARIZONA

CITY           SKY/WX    TMP DP  RH WIND       PRES   REMARKS
GRAND CANYON   PTCLDY    31  15  52 CALM      29.91F
WILLIAMS       CLEAR     46  19  34 S6        30.00S
PRESCOTT       CLEAR     50  22  33 S7        29.88S
FLAGSTAFF      CLEAR     48  17  29 W14G23    29.91F
PAYSON         CLEAR     57  28  33 SW6       29.91S
PAGE           CLEAR     61  10  13 NW3       29.77S
$$

AZZ009>014-017-231000-
NORTHEAST ARIZONA

CITY           SKY/WX    TMP DP  RH WIND       PRES   REMARKS
WINSLOW        CLEAR     57  30  35 SW9       29.82F
SAINT JOHNS    MOCLDY    54  24  31 CALM      29.88F
WINDOW ROCK    MOCLDY    50  25  37 SW3       29.91F
SHOW LOW       CLEAR     50  25  37 S18G25    29.92F
$$

AZZ023-231000-
GREATER PHOENIX AREA

CITY           SKY/WX    TMP DP  RH WIND       PRES   REMARKS
PHOENIX        PTCLDY    77  31  18 W18       29.72R
BUCKEYE          N/A     66  23  19 SW8       29.75S
LUKE AFB       NOT AVBL
DEER VALLEY    CLEAR     69  29  22 SW6       29.73S
SCOTTSDALE     CLEAR     74  30  19 SW8       29.75S
MESA-GATEWAY   CLEAR     66  32  28 E3        29.78R
$$

AZZ027-028-231000-
SOUTHWEST MARICOPA COUNTY AND PINAL COUNTY

CITY           SKY/WX    TMP DP  RH WIND       PRES   REMARKS
CASA GRANDE    CLEAR     68  27  21 SW6       29.77S
$$

AZZ503-504-507>509-231000-
SOUTHEAST ARIZONA

CITY           SKY/WX    TMP DP  RH WIND       PRES   REMARKS
TUCSON         CLEAR     68  27  21 SW8       29.85F
DAVIS-MONTHAN  CLEAR     68  28  22 W3        29.84F
NOGALES        PTCLDY    61  26  26 SE6       29.91F
SIERRA VISTA   PTCLDY    61  27  27 SW7       29.93F
DOUGLAS        MOCLDY    61  24  24 W7        29.92S
SAFFORD        PTCLDY    69  27  20 NW10      29.80S
$$

AZZ020-021-025-026-031-231000-
SOUTHWEST ARIZONA

CITY           SKY/WX    TMP DP  RH WIND       PRES   REMARKS
YUMA           CLEAR     65  32  29 W10       29.75F
$$

CAZ031-033-041-043-047-048-061-231000-
SOUTHERN CALIFORNIA

CITY           SKY/WX    TMP DP  RH WIND       PRES   REMARKS
DOWNTOWN L.A.  PTCLDY    59  48  67 VRB3      29.94R
L.A. AIRPORT   MOCLDY    57  48  72 E5        29.94R
SAN DIEGO      PTCLDY    61  50  67 S6        29.96F
BURBANK        PTCLDY    57  46  66 E6        29.93R
ONTARIO        PTCLDY    55  48  77 NW3       29.93F
RIVERSIDE      PTCLDY    56  49  77 CALM      29.94S
PALM SPRINGS   CLEAR     66  43  43 CALM      29.76F
EL CENTRO NAS  CLEAR     67  33  28 W18       29.76S
IMPERIAL       CLEAR     64  35  34 W9        29.75F
BLYTHE         CLEAR     63  30  28 SE5       29.76R
NEEDLES        PTCLDY    69  11  10 NW17      29.74S
$$

NVZ020-UTZ003-231000-
SOUTHERN NEVADA-UTAH

CITY           SKY/WX    TMP DP  RH WIND       PRES   REMARKS
LAS VEGAS      MOCLDY    66   5   9 NW10      29.76R
SALT LAKE CITY LGT RAIN  41  41 100 W13G26    29.90R
$$

NMZ009-TXZ055-231000-
NEW MEXICO-WEST TEXAS

CITY           SKY/WX    TMP DP  RH WIND       PRES   REMARKS
ALBUQUERQUE    CLOUDY    62  29  28 SE5       29.85S
EL PASO        MOCLDY    74  25  16 SW9       29.83F
$$


........................KEY........................
SKY/WX - SKY CONDITION/WEATHER
TMP    - TEMPERATURE IN FAHRENHEIT
DP     - DEW POINT IN FAHRENHEIT
RH     - RELATIVE HUMIDITY IN PERCENT
WIND   - DIRECTION AND SPEED IN MILES PER HOUR (MPH)
VRB    - VARIABLE WIND DIRECTION
PRES   - MEAN SEA LEVEL PRESSURE IN INCHES OF MERCURY
         F - FALLING PRESSURE   R - RISING PRESSURE
         S - STEADY PRESSURE
VSB    - VISIBILITY IN MILES
HX     - HEAT INDEX IN FAHRENHEIT
WCI    - WIND CHILL INDEX IN FAHRENHEIT
TC     - TEMPERATURE IN CELSIUS WHICH IS ALSO KNOWN AS
         TEMPERATURE IN CENTIGRADE
AFB    - AIR FORCE BASE
         LUKE AFB IS LUKE AIR FORCE BASE
         DAVIS-MONTHAN IS DAVIS-MONTHAN AIR FORCE BASE
NAS    - NAVAL AIR STATION
         EL CENTRO NAS IS EL CENTRO NAVAL AIR STATION
N/A    - NOT AVAILABLE



USA.gov is the U.S. government's official web portal to all federal, state and local government web resources and services.